Date String (YYYY-MM-DD hh:mm:ss) UTC,Instrument flags,Ambient pressure (hPa),Sample flow (lpm),Bypass flow (lpm),Sample temperature (°C),Ambient temperature (°C),ASC tube jacket temperature (°C),LED temperature (°C),Box temperature (°C),Sample RH (%),Span deviation,Mass concentration (μg/m³),Mass concentration (μg/m³),Mass concentration (μg/m³)
DateTimeUTC,F1_M11,P_M11,Q1_M11,Q2_M11,T1_M11,T2_M11,T3_M11,T4_M11,T5_M11,U1_M11,ZSPAN_M11,X0_M11,X2_M11,X1_M11
2022-09-19 13:00:00,,0826.5,5.01,0.00,30.8,29.3,00.0,39.6,32.6,18.4,0000.0,0010.65,0004.65,0004.00
2022-09-19 13:01:00,,0826.5,4.99,0.00,30.8,29.3,00.0,39.6,32.6,18.2,0000.0,0010.70,0004.74,0004.08
2022-09-19 13:02:00,,0826.5,5.01,0.00,30.8,29.3,00.0,39.7,32.6,18.0,0000.0,0010.78,0004.82,0004.14
2022-09-19 13:03:00,,0826.5,4.99,0.00,30.8,29.3,00.0,39.7,32.6,17.7,0000.0,0011.39,0004.89,0004.18
2022-09-19 13:04:00,,0826.5,5.01,0.00,30.8,29.3,00.0,39.6,32.6,17.6,0000.0,0011.62,0004.96,0004.21
2022-09-19 13:05:00,,0826.5,5.01,0.00,30.8,29.3,00.0,39.6,32.6,17.3,0000.0,0011.63,0005.00,0004.24
2022-09-19 13:06:00,,0826.5,4.99,0.00,30.8,29.3,00.0,39.6,32.6,16.8,0000.0,0012.49,0005.02,0004.25
2022-09-19 13:07:00,,0826.5,5.01,0.00,30.8,29.3,00.0,39.7,32.6,16.7,0000.0,0012.80,0005.02,0004.26
2022-09-19 13:08:00,,0826.5,4.99,0.00,30.8,29.3,00.0,39.7,32.6,16.4,0000.0,0012.87,0005.00,0004.27
2022-09-19 13:09:00,,0826.6,5.00,0.00,30.8,29.3,00.0,39.7,32.6,16.6,0000.0,0011.98,0004.93,0004.24
2022-09-19 13:10:00,,0826.5,5.00,0.00,30.8,29.4,00.0,39.6,32.6,16.4,0000.0,0011.54,0004.90,0004.20
2022-09-19 13:11:00,,0826.5,5.00,0.00,30.8,29.3,00.0,39.6,32.6,16.3,0000.0,0011.85,0004.86,0004.15
2022-09-19 13:12:00,,0826.5,5.01,0.00,30.8,29.3,00.0,39.7,32.6,16.9,0000.0,0011.79,0004.79,0004.11
2022-09-19 13:13:00,,0826.5,4.99,0.00,30.8,29.3,00.0,39.7,32.6,16.9,0000.0,0011.59,0004.71,0004.08
2022-09-19 13:14:00,,0826.5,5.01,0.00,30.9,29.4,00.0,39.7,32.6,17.6,0000.0,0011.03,0004.67,0004.07
2022-09-19 13:15:00,,0826.5,4.99,0.00,30.9,29.4,00.0,39.7,32.6,18.4,0000.0,0011.35,0004.65,0004.08
2022-09-19 13:16:00,,0826.5,5.00,0.00,30.9,29.3,00.0,39.7,32.6,18.5,0000.0,0012.55,0004.67,0004.10
2022-09-19 13:17:00,,0826.5,5.01,0.00,30.9,29.3,00.0,39.7,32.6,18.4,0000.0,0011.65,0004.73,0004.14
2022-09-19 13:18:00,,0826.5,5.00,0.00,30.8,29.3,00.0,39.7,32.6,18.3,0000.0,0011.89,0004.77,0004.16
2022-09-19 13:19:00,,0826.4,4.98,0.00,30.8,29.3,00.0,39.7,32.6,18.1,0000.0,0012.50,0004.82,0004.19
2022-09-19 13:20:00,,0826.5,5.01,0.00,30.8,29.3,00.0,39.7,32.5,18.6,0000.0,0012.42,0004.84,0004.22
2022-09-19 13:21:00,,0826.5,5.00,0.00,30.8,29.2,00.0,39.7,32.5,18.9,0000.0,0012.37,0004.87,0004.28
2022-09-19 13:22:00,,0826.5,5.00,0.00,30.8,29.2,00.0,39.6,32.5,19.0,0000.0,0011.95,0004.92,0004.33
2022-09-19 13:23:00,,0826.5,5.00,0.00,30.8,29.2,00.0,39.6,32.5,18.6,0000.0,0012.32,0004.95,0004.36
2022-09-19 13:24:00,,0826.5,4.99,0.00,30.8,29.2,00.0,39.6,32.5,18.8,0000.0,0012.44,0004.99,0004.38
2022-09-19 13:25:00,,0826.5,5.01,0.00,30.8,29.2,00.0,39.6,32.5,19.5,0000.0,0012.84,0005.05,0004.40
2022-09-19 13:26:00,,0826.5,5.00,0.00,30.8,29.2,00.0,39.6,32.5,20.1,0000.0,0012.57,0005.08,0004.43
2022-09-19 13:27:00,,0826.4,5.00,0.00,30.8,29.2,00.0,39.6,32.5,20.9,0000.0,0012.61,0005.16,0004.49
2022-09-19 13:28:00,,0826.4,5.01,0.00,30.8,29.3,00.0,39.6,32.5,21.6,0000.0,0013.15,0005.28,0004.57
2022-09-19 13:29:00,,0826.5,5.00,0.00,30.8,29.3,00.0,39.6,32.5,21.6,0000.0,0012.70,0005.37,0004.65
2022-09-19 13:30:00,,0826.5,5.01,0.00,30.8,29.3,00.0,39.6,32.5,21.0,0000.0,0012.25,0005.48,0004.73
2022-09-19 13:31:00,,0826.5,4.99,0.00,30.8,29.3,00.0,39.6,32.5,20.9,0000.0,0012.99,0005.61,0004.78
2022-09-19 13:32:00,,0826.5,5.01,0.00,30.8,29.3,00.0,39.6,32.5,20.9,0000.0,0013.35,0005.66,0004.81
2022-09-19 13:33:00,,0826.5,5.01,0.00,30.8,29.3,00.0,39.6,32.5,20.9,0000.0,0013.41,0005.68,0004.84
2022-09-19 13:34:00,,0826.5,4.99,0.00,30.8,29.3,00.0,39.6,32.5,20.9,0000.0,0013.46,0005.74,0004.88
2022-09-19 13:35:00,,0826.5,5.01,0.00,30.8,29.3,00.0,39.6,32.5,20.6,0000.0,0013.60,0005.78,0004.92
2022-09-19 13:36:00,,0826.5,4.99,0.00,30.8,29.3,00.0,39.6,32.5,20.3,0000.0,0013.34,0005.74,0004.93
2022-09-19 13:37:00,,0826.6,5.02,0.00,30.8,29.4,00.0,39.6,32.6,20.1,0000.0,0012.86,0005.73,0004.92
2022-09-19 13:38:00,,0826.5,5.01,0.00,30.8,29.4,00.0,39.6,32.6,19.0,0000.0,0011.46,0005.65,0004.86
2022-09-19 13:39:00,,0826.5,5.00,0.00,30.8,29.4,00.0,39.6,32.6,19.0,0000.0,0010.78,0005.50,0004.78
2022-09-19 13:40:00,,0826.5,5.00,0.00,30.8,29.4,00.0,39.6,32.6,19.4,0000.0,0010.70,0005.41,0004.70
2022-09-19 13:41:00,,0826.5,4.99,0.00,30.9,29.4,00.0,39.6,32.6,19.7,0000.0,0011.09,0005.32,0004.62
2022-09-19 13:42:00,,0826.5,5.00,0.00,30.9,29.4,00.0,39.6,32.6,19.8,0000.0,0011.21,0005.17,0004.56
2022-09-19 13:43:00,,0826.5,4.99,0.00,30.9,29.5,00.0,39.6,32.6,20.1,0000.0,0011.37,0005.12,0004.52
2022-09-19 13:44:00,,0826.5,5.01,0.00,30.9,29.5,00.0,39.7,32.6,19.9,0000.0,0012.16,0005.09,0004.49
2022-09-19 13:45:00,,0826.5,4.99,0.00,30.9,29.5,00.0,39.7,32.6,19.8,0000.0,0011.77,0005.01,0004.45
2022-09-19 13:46:00,,0826.5,5.01,0.00,30.9,29.2,00.0,39.7,32.6,19.8,0000.0,0011.57,0005.01,0004.44
2022-09-19 13:47:00,,0826.6,5.00,0.00,30.9,27.9,00.0,39.6,32.6,18.7,0000.0,0011.52,0005.02,0004.43
2022-09-19 13:48:00,,0826.6,5.01,0.00,30.8,27.1,00.0,39.5,32.5,18.2,0000.0,0011.41,0004.99,0004.40
2022-09-19 13:49:00,,0826.6,4.99,0.00,30.8,27.2,00.0,39.5,32.3,17.9,0000.0,0011.35,0004.95,0004.36
2022-09-19 13:50:00,,0826.7,5.01,0.00,30.6,27.4,00.0,39.4,32.1,16.2,0000.0,0011.20,0004.84,0004.25
2022-09-19 13:51:00,,0826.6,4.99,0.00,30.6,27.7,00.0,39.4,32.1,15.6,0000.0,0010.89,0004.69,0004.12
2022-09-19 13:52:00,,0826.7,5.01,0.00,30.5,28.0,00.0,39.4,32.1,15.6,0000.0,0010.21,0004.55,0004.02
2022-09-19 13:53:00,,0826.7,5.00,0.00,30.5,28.2,00.0,39.3,32.1,15.2,0000.0,0009.35,0004.45,0003.91
2022-09-19 13:54:00,,0826.7,4.99,0.00,30.5,28.4,00.0,39.3,32.1,15.4,0000.0,0008.74,0004.33,0003.79
2022-09-19 13:55:00,,0826.6,5.00,0.00,30.5,28.5,00.0,39.3,32.1,15.6,0000.0,0007.86,0004.19,0003.66
2022-09-19 13:56:00,,0826.5,4.99,0.00,30.5,28.6,00.0,39.3,32.1,15.6,0000.0,0008.16,0004.04,0003.51
2022-09-19 13:57:00,,0826.5,5.01,0.00,30.5,28.7,00.0,39.3,32.2,15.6,0000.0,0007.96,0003.82,0003.35
2022-09-19 13:58:00,,0826.5,5.00,0.00,30.5,28.8,00.0,39.3,32.2,15.8,0000.0,0007.60,0003.63,0003.21
2022-09-19 13:59:00,,0826.5,5.02,0.00,30.5,28.8,00.0,39.3,32.1,16.2,0000.0,0007.49,0003.49,0003.05
